K9VSK-9 Weather Reports


Display with metric or nautical units.
time (UTC)temp
F
wind
direction
speed
MPH
gust
MPH
rain 1hr
in
rain 24hr
in
rain mn
in
humidity
%
barometer
mb
20260504060210 50 267 6.0 0.0 0.00 0.00 0.00 83 1007.8
20260504050707 54 253 5.0 0.0 0.00 0.00 0.00 78 1008.4
20260504050206 54 252 7.0 0.0 0.00 0.00 0.00 79 1008.4
20260504045709 54 252 5.0 0.0 0.00 0.00 0.00 78 1008.4
20260504045206 54 249 7.0 0.0 0.00 0.00 0.00 78 1008.4
20260504044706 55 243 6.0 0.0 0.00 0.00 0.00 77 1008.4
20260504044205 55 265 7.0 0.0 0.00 0.00 0.00 77 1008.5
20260504043705 55 263 7.0 0.0 0.00 0.00 0.00 78 1008.5
20260504043205 54 261 7.0 0.0 0.00 0.00 0.00 79 1008.5
20260504042704 54 262 8.0 0.0 0.00 0.00 0.00 79 1008.5
20260504042204 54 268 7.0 0.0 0.00 0.00 0.00 79 1008.6
20260504041704 54 265 9.0 0.0 0.00 0.00 0.00 79 1008.5
20260504041203 54 261 7.0 0.0 0.00 0.00 0.00 79 1008.5
20260504040703 54 262 4.0 0.0 0.00 0.00 0.00 79 1008.6
20260504040203 54 261 6.0 0.0 0.00 0.00 0.00 79 1008.6
20260504035703 54 261 6.0 0.0 0.00 0.00 0.00 79 1008.6
20260504035202 54 261 7.0 0.0 0.00 0.00 0.00 78 1008.6
20260504034703 54 267 6.0 0.0 0.00 0.00 0.00 78 1008.7
20260504034202 54 259 7.0 0.0 0.00 0.00 0.00 78 1008.7
20260504033702 55 263 7.0 0.0 0.00 0.00 0.00 77 1008.8
20260504033201 55 265 7.0 0.0 0.00 0.00 0.00 76 1008.8
20260504032701 56 259 6.0 0.0 0.00 0.00 0.00 76 1008.8
20260504032201 56 257 7.0 0.0 0.00 0.00 0.00 76 1008.8
20260504031700 56 360 5.0 0.0 0.00 0.00 0.00 75 1008.8
20260504031200 57 360 5.0 0.0 0.00 0.00 0.00 74 1008.9
20260504030700 57 250 8.0 0.0 0.00 0.00 0.00 74 1008.8
20260504030200 57 360 6.0 0.0 0.00 0.00 0.00 74 1008.7
20260504025659 57 360 5.0 0.0 0.00 0.00 0.00 73 1008.8
20260504025159 57 257 5.0 0.0 0.00 0.00 0.00 72 1008.8
20260504024659 57 260 6.0 0.0 0.00 0.00 0.00 72 1008.7
20260504024158 57 266 7.0 0.0 0.00 0.00 0.00 73 1008.7
20260504023658 57 256 5.0 0.0 0.00 0.00 0.00 72 1008.8
20260504023158 58 256 7.0 0.0 0.00 0.00 0.00 72 1008.7
20260504022658 57 260 7.0 0.0 0.00 0.00 0.00 72 1008.7
20260504022157 58 360 5.0 0.0 0.00 0.00 0.00 71 1008.7
20260504021657 58 360 4.0 0.0 0.00 0.00 0.00 71 1008.7
20260504021157 59 245 5.0 0.0 0.00 0.00 0.00 70 1008.7
20260504020656 59 258 4.0 0.0 0.00 0.00 0.00 69 1008.7
20260504020156 60 254 7.0 0.0 0.00 0.00 0.00 69 1008.7
20260504015656 59 248 7.0 0.0 0.00 0.00 0.00 69 1008.7
20260504015156 59 242 8.0 0.0 0.00 0.00 0.00 69 1008.7
20260504014655 60 245 9.0 0.0 0.00 0.00 0.00 68 1008.6
20260504014155 60 244 8.0 0.0 0.00 0.00 0.00 68 1008.6
20260504013656 60 360 9.0 0.0 0.00 0.00 0.00 67 1008.5
20260504013154 61 250 9.0 0.0 0.00 0.00 0.00 67 1008.5
20260504012654 61 242 8.0 0.0 0.00 0.00 0.00 66 1008.5
20260504012154 62 360 8.0 0.0 0.00 0.00 0.00 65 1008.4
20260504011654 62 360 9.0 0.0 0.00 0.00 0.00 65 1008.4
20260504011153 62 244 9.0 0.0 0.00 0.00 0.00 64 1008.4
20260504010653 62 248 9.0 0.0 0.00 0.00 0.00 64 1008.4
20260504010153 63 266 8.0 0.0 0.00 0.00 0.00 63 1008.4
20260504005652 63 244 7.0 0.0 0.00 0.00 0.00 62 1008.4
20260504005152 64 360 10.0 0.0 0.00 0.00 0.00 62 1008.4
20260504004652 64 360 6.0 0.0 0.00 0.00 0.00 61 1008.5
20260504004152 64 360 5.0 0.0 0.00 0.00 0.00 60 1008.5
20260504003651 65 246 10.0 0.0 0.00 0.00 0.00 60 1008.4
20260504003151 65 257 7.0 0.0 0.00 0.00 0.00 59 1008.4
20260504002651 66 251 8.0 0.0 0.00 0.00 0.00 58 1008.3
20260504002152 66 244 8.0 0.0 0.00 0.00 0.00 57 1008.4
20260504001650 67 256 10.0 0.0 0.00 0.00 0.00 56 1008.5
20260504001150 67 360 11.0 0.0 0.00 0.00 0.00 55 1008.5
20260504000650 67 248 12.0 0.0 0.00 0.00 0.00 55 1008.5
20260504000150 67 256 11.0 0.0 0.00 0.00 0.00 54 1008.5
20260503235649 68 266 14.0 0.0 0.00 0.00 0.00 54 1008.5
20260503235150 68 254 15.0 0.0 0.00 0.00 0.00 53 1008.5
20260503234650 68 265 15.0 0.0 0.00 0.00 0.00 53 1008.6
20260503234149 68 262 18.0 0.0 0.00 0.00 0.00 53 1008.6
20260503233149 68 280 15.0 0.0 0.00 0.00 0.00 52 1008.6
20260503231648 68 263 16.0 0.0 0.00 0.00 0.00 51 1008.7
20260503231147 68 260 19.0 0.0 0.00 0.00 0.00 51 1008.7
20260503222645 69 260 15.0 0.0 0.00 0.00 0.00 49 1009.0
20260503222145 69 271 24.0 0.0 0.00 0.00 0.00 49 1009.0
20260503221644 69 269 20.0 0.0 0.00 0.00 0.00 48 1009.0
20260503221144 69 261 20.0 0.0 0.00 0.00 0.00 47 1009.0
20260503220644 69 262 17.0 0.0 0.00 0.00 0.00 49 1009.1
20260503220144 69 242 18.0 0.0 0.00 0.00 0.00 48 1009.1
20260503215643 69 253 18.0 0.0 0.00 0.00 0.00 49 1009.1
20260503215143 69 267 22.0 0.0 0.00 0.00 0.00 48 1009.1
20260503214643 68 256 24.0 0.0 0.00 0.00 0.00 48 1009.2
20260503214142 68 259 26.0 0.0 0.00 0.00 0.00 48 1009.1
20260503213642 68 257 18.0 0.0 0.00 0.00 0.00 49 1009.3
20260503213142 68 271 18.0 0.0 0.00 0.00 0.00 48 1009.2
20260503212642 67 266 22.0 0.0 0.00 0.00 0.00 49 1009.4
20260503212141 67 264 30.0 0.0 0.00 0.00 0.00 48 1009.3
20260503211641 67 259 27.0 0.0 0.00 0.00 0.00 48 1009.4
20260503211141 68 250 20.0 0.0 0.00 0.00 0.00 47 1009.4
20260503210641 68 254 24.0 0.0 0.00 0.00 0.00 47 1009.4
20260503210140 68 245 26.0 0.0 0.00 0.00 0.00 47 1009.4
20260503205640 68 258 21.0 0.0 0.00 0.00 0.00 46 1009.4
20260503205139 68 258 22.0 0.0 0.00 0.00 0.00 46 1009.4
20260503204639 68 232 17.0 0.0 0.00 0.00 0.00 47 1009.5
20260503204138 67 263 27.0 0.0 0.00 0.00 0.00 46 1009.4
20260503203638 68 251 22.0 0.0 0.00 0.00 0.00 48 1009.6
20260503203138 67 267 29.0 0.0 0.00 0.00 0.00 47 1009.6
20260503202638 68 248 33.0 0.0 0.00 0.00 0.00 45 1009.5
20260503202137 69 248 25.0 0.0 0.00 0.00 0.00 44 1009.4
20260503201637 69 244 24.0 0.0 0.00 0.00 0.00 44 1009.7
20260503201137 69 252 26.0 0.0 0.00 0.00 0.00 44 1009.6
20260503200637 69 249 24.0 0.0 0.00 0.00 0.00 44 1009.7
20260503200136 69 240 21.0 0.0 0.00 0.00 0.00 44 1009.8
20260503195636 69 257 34.0 0.0 0.00 0.00 0.00 44 1010.0
20260503195136 69 237 28.0 0.0 0.00 0.00 0.00 44 1010.1
20260503194636 68 246 25.0 0.0 0.00 0.00 0.00 45 1010.0
20260503194135 68 241 25.0 0.0 0.00 0.00 0.00 45 1010.2
20260503193635 68 257 23.0 0.0 0.00 0.00 0.00 45 1010.3
20260503192635 68 230 26.0 0.0 0.00 0.00 0.00 45 1010.3
20260503192134 68 237 22.0 0.0 0.00 0.00 0.00 45 1010.3
20260503191634 67 241 21.0 0.0 0.00 0.00 0.00 46 1010.2
20260503191134 67 238 22.0 0.0 0.00 0.00 0.00 45 1010.4
20260503190633 67 248 25.0 0.0 0.00 0.00 0.00 45 1010.4
20260503190132 66 241 22.0 0.0 0.00 0.00 0.00 45 1010.4
20260503185632 66 237 28.0 0.0 0.00 0.00 0.00 46 1010.5
20260503185132 66 237 24.0 0.0 0.00 0.00 0.00 46 1010.7
20260503184632 65 219 23.0 0.0 0.00 0.00 0.00 47 1010.8
20260503184131 65 227 31.0 0.0 0.00 0.00 0.00 46 1010.8
20260503183631 65 225 26.0 0.0 0.00 0.00 0.00 48 1010.9
20260503183131 65 210 22.0 0.0 0.00 0.00 0.00 49 1011.2
20260503182630 64 222 19.0 0.0 0.00 0.00 0.00 49 1011.2
20260503182130 64 236 24.0 0.0 0.00 0.00 0.00 49 1011.2
20260503181630 63 211 26.0 0.0 0.00 0.00 0.00 50 1011.1
20260503181130 63 210 24.0 0.0 0.00 0.00 0.00 50 1011.4
20260503180629 64 215 21.0 0.0 0.00 0.00 0.00 49 1011.5
20260503180129 63 223 24.0 0.0 0.00 0.00 0.00 51 1011.9
20260503175629 62 225 26.0 0.0 0.00 0.00 0.00 51 1012.0
20260503175128 62 229 19.0 0.0 0.00 0.00 0.00 51 1012.2
20260503174628 61 207 23.0 0.0 0.00 0.00 0.00 53 1012.5
20260503174128 61 219 19.0 0.0 0.00 0.00 0.00 52 1012.8
20260503173628 62 222 22.0 0.0 0.00 0.00 0.00 51 1012.7
20260503173127 61 219 22.0 0.0 0.00 0.00 0.00 52 1012.8
20260503172627 61 232 18.0 0.0 0.00 0.00 0.00 53 1013.0
20260503172127 61 218 14.0 0.0 0.00 0.00 0.00 53 1013.4
20260503171626 61 215 25.0 0.0 0.00 0.00 0.00 54 1013.6
20260503171126 60 236 19.0 0.0 0.00 0.00 0.00 55 1014.0
20260503170626 60 229 15.0 0.0 0.00 0.00 0.00 55 1014.0
20260503170126 60 229 18.0 0.0 0.00 0.00 0.00 55 1014.2
20260503160122 57 227 12.0 0.0 0.00 0.00 0.00 58 1014.9
20260503150620 54 240 15.0 0.0 0.00 0.00 0.00 63 1015.8
20260503150120 54 234 19.0 0.0 0.00 0.00 0.00 64 1015.9
20260503140115 52 360 11.0 0.0 0.00 0.00 0.00 70 1016.5
20260503131113 49 360 10.0 0.0 0.00 0.00 0.00 73 1017.3
20260503130612 49 360 13.0 0.0 0.00 0.00 0.00 73 1017.3
20260503130113 49 360 13.0 0.0 0.00 0.00 0.00 73 1017.4
20260503120110 46 229 13.0 0.0 0.00 0.00 0.00 76 1017.2
20260503110606 44 225 9.0 0.0 0.00 0.00 0.00 77 1017.0
20260503110105 44 227 12.0 0.0 0.00 0.00 0.00 77 1017.0
20260503081556 44 226 7.0 0.0 0.00 0.00 0.00 75 1017.7
20260503081056 43 227 7.0 0.0 0.00 0.00 0.00 76 1017.7
20260503080555 43 227 5.0 0.0 0.00 0.00 0.00 77 1017.7
20260503072553 42 226 5.0 0.0 0.00 0.00 0.00 77 1017.8
20260503072053 42 230 4.0 0.0 0.00 0.00 0.00 78 1017.8
20260503071553 41 242 4.0 0.0 0.00 0.00 0.00 78 1017.8
20260503071052 41 242 4.0 0.0 0.00 0.00 0.00 77 1017.9
20260503070552 42 256 3.0 0.0 0.00 0.00 0.00 76 1018.0